Location: Unspecified
(0.0000°N, 0.0000°E)
Time: 18:18:34
(UTC+00:00)

Hubble Space Telescope - Pass Details

Date: 16 January 2020
Orbit: 536 x 540 km, 28.5° (Epoch: 23 January)

Event Time Altitude Azimuth Distance (km) Brightness Sun altitude
Rises 19:50:29 0° 316° (NW) 2,666 4.6 -23.4°
Reaches altitude 10° 19:52:56 10° 326° (NW) 1,777 3.5 -24.0°
Enters shadow 19:53:44 15° 333° (NNW) 1,506 3.1 -24.2°
